Toccoa Rg Letourneau Field, T, GA

5:31 PM EST on November 17, 2017 (GMT -0500)
Toccoa-Letourneau

Weather History for KTOC - February, 2014

Change the Weather History Date:

Saturday, February 1, 2014

  Actual Average Record
Temperature  
Mean Temperature 44 °F -  
Max Temperature 57 °F 54 °F 71 °F (2017)
Min Temperature 30 °F 33 °F 30 °F (2014)
Degree Days  
Heating Degree Days 22    
Moisture  
Dew Point 25 °F    
Average Humidity 49    
Maximum Humidity 74    
Minimum Humidity 24    
Precipitation  
Precipitation 0.00 in - - ()
Sea Level Pressure  
Sea Level Pressure 30.15 in    
Wind  
Wind Speed 1 mph (NNE)    
Max Wind Speed 5 mph    
Max Gust Speed -    
Visibility 10 miles    
Events      
Averages and records for this station are not official NWS values.
T = Trace of Precipitation, MM = Missing Value Source: NWS Daily Summary

Daily Weather History Graph

Daily Weather History Graph

Search for Another Location

Airport or City:

Trip Planner

Search our weather history database for the weather conditions in past years. The results will help you decide how hot, cold, wet, or windy it might be!

Date:

Astronomy

Feb. 01, 2014 Rise Set
Actual Time 7:31 AM EST 6:02 PM EST
Civil Twilight 7:04 AM EST 6:29 PM EST
Nautical Twilight 6:34 AM EST 6:59 PM EST
Astronomical Twilight 6:05 AM EST 7:29 PM EST
Moon 8:27 AM EST (2/1) 8:28 PM EST (2/1)
Length of Visible Light 11h 24m
Length of Day
10h 31m
Waxing Crescent, 5% of the Moon is Illuminated
Feb 1
Waxing Crescent
Feb 6
First Quarter
Feb 14
Full
Feb 22
Last Quarter
Mar 1
New

Hourly Weather History & Observations

Time (EST) Temp. Windchill Dew Point Humidity Pressure Visibility Wind Dir Wind Speed Gust Speed Precip Events Conditions
12:15 AM 34.9 °F - 15.3 °F 45% 30.15 in 10.0 mi Calm Calm - N/A   Clear
12:35 AM 34.5 °F - 16.0 °F 47% 30.16 in 10.0 mi Calm Calm - N/A   Clear
12:55 AM 34.7 °F - 15.8 °F 46% 30.16 in 10.0 mi Calm Calm - N/A   Clear
1:15 AM 33.6 °F - 17.6 °F 52% 30.16 in 10.0 mi Calm Calm - N/A   Clear
1:35 AM 34.0 °F 31.0 °F 16.7 °F 49% 30.16 in 10.0 mi North 3.5 mph - N/A   Clear
1:55 AM 32.4 °F - 18.7 °F 57% 30.16 in 10.0 mi Calm Calm - N/A   Clear
2:15 AM 32.4 °F 27.9 °F 18.1 °F 56% 30.16 in 10.0 mi North 4.6 mph - N/A   Clear
2:35 AM 32.9 °F - 19.0 °F 57% 30.16 in 10.0 mi Calm Calm - N/A   Clear
2:55 AM 32.0 °F - 18.3 °F 57% 30.16 in 10.0 mi Calm Calm - N/A   Clear
3:15 AM 30.9 °F - 18.9 °F 61% 30.16 in 10.0 mi Calm Calm - N/A   Clear
3:35 AM 31.8 °F 27.3 °F 19.4 °F 60% 30.16 in 10.0 mi North 4.6 mph - N/A   Clear
3:55 AM 30.0 °F 25.2 °F 21.7 °F 71% 30.16 in 10.0 mi NNW 4.6 mph - N/A   Clear
4:15 AM 31.5 °F 26.8 °F 19.4 °F 61% 30.16 in 10.0 mi North 4.6 mph - N/A   Clear
4:35 AM 32.9 °F 29.8 °F 18.5 °F 55% 30.15 in 10.0 mi North 3.5 mph - N/A   Clear
4:55 AM 32.0 °F 28.7 °F 18.7 °F 58% 30.15 in 10.0 mi North 3.5 mph - N/A   Clear
5:15 AM 32.0 °F - 18.5 °F 58% 30.15 in 10.0 mi Calm Calm - N/A   Clear
5:35 AM 31.5 °F 26.8 °F 19.2 °F 61% 30.15 in 10.0 mi North 4.6 mph - N/A   Clear
5:55 AM 32.0 °F - 19.0 °F 59% 30.16 in 10.0 mi Calm Calm - N/A   Clear
6:15 AM 32.0 °F 28.7 °F 18.9 °F 58% 30.16 in 10.0 mi North 3.5 mph - N/A   Clear
6:35 AM 32.0 °F - 19.6 °F 60% 30.17 in 10.0 mi Calm Calm - N/A   Clear
6:55 AM 31.6 °F 28.3 °F 19.0 °F 60% 30.17 in 10.0 mi North 3.5 mph - N/A   Clear
7:15 AM 31.1 °F 27.7 °F 19.4 °F 62% 30.18 in 10.0 mi North 3.5 mph - N/A   Clear
7:35 AM 32.0 °F 28.7 °F 20.5 °F 63% 30.18 in 10.0 mi North 3.5 mph - N/A   Mostly Cloudy
7:55 AM 34.0 °F 29.8 °F 20.1 °F 57% 30.18 in 10.0 mi North 4.6 mph - N/A   Overcast
8:15 AM 34.7 °F 31.8 °F 20.8 °F 57% 30.18 in 10.0 mi North 3.5 mph - N/A   Overcast
8:35 AM 36.0 °F 33.3 °F 20.3 °F 53% 30.18 in 10.0 mi North 3.5 mph - N/A   Overcast
8:55 AM 37.4 °F - 21.9 °F 54% 30.19 in 10.0 mi Calm Calm - N/A   Mostly Cloudy
9:15 AM 40.8 °F - 20.8 °F 45% 30.19 in 10.0 mi Calm Calm - N/A   Mostly Cloudy
9:35 AM 43.9 °F - 20.8 °F 40% 30.20 in 10.0 mi Calm Calm - N/A   Overcast
9:55 AM 44.8 °F - 21.6 °F 40% 30.20 in 10.0 mi Calm Calm - N/A   Overcast
10:15 AM 45.7 °F 43.4 °F 21.0 °F 38% 30.20 in 10.0 mi NNE 4.6 mph - N/A   Overcast
10:35 AM 47.7 °F - 20.3 °F 34% 30.20 in 10.0 mi NE 3.5 mph - N/A   Overcast
10:55 AM 48.6 °F - 19.8 °F 32% 30.20 in 10.0 mi NE 3.5 mph - N/A   Overcast
11:15 AM 49.8 °F - 19.9 °F 31% 30.20 in 10.0 mi East 3.5 mph - N/A   Overcast
11:35 AM 50.0 °F - 19.9 °F 31% 30.20 in 10.0 mi ENE 3.5 mph - N/A   Overcast
11:55 AM 50.5 °F - 20.8 °F 31% 30.19 in 10.0 mi ESE 3.5 mph - N/A   Overcast
12:15 PM 51.6 °F - 19.6 °F 28% 30.18 in 10.0 mi Calm Calm - N/A   Overcast
12:35 PM 52.3 °F - 20.1 °F 28% 30.17 in 10.0 mi Calm Calm - N/A   Overcast
12:55 PM 53.6 °F - 18.9 °F 26% 30.15 in 10.0 mi East 3.5 mph - N/A   Overcast
1:15 PM 54.1 °F - 18.9 °F 25% 30.14 in 10.0 mi Calm Calm - N/A   Overcast
1:35 PM 54.9 °F - 18.9 °F 24% 30.14 in 10.0 mi Calm Calm - N/A   Overcast
1:55 PM 55.9 °F - 19.6 °F 24% 30.13 in 10.0 mi Calm Calm - N/A   Overcast
2:15 PM 56.3 °F - 21.0 °F 25% 30.12 in 10.0 mi Calm Calm - N/A   Overcast
2:35 PM 56.3 °F - 20.5 °F 25% 30.12 in 10.0 mi Calm Calm - N/A   Overcast
2:55 PM 56.8 °F - 30.2 °F 36% 30.11 in 10.0 mi Calm Calm - N/A   Overcast
3:15 PM 56.7 °F - 29.3 °F 35% 30.12 in 10.0 mi Calm Calm - N/A   Overcast
3:35 PM 56.3 °F - 32.4 °F 40% 30.11 in 10.0 mi Calm Calm - N/A   Overcast
3:55 PM 56.8 °F - 28.6 °F 34% 30.11 in 10.0 mi Calm Calm - N/A   Overcast
4:15 PM 57.0 °F - 29.7 °F 35% 30.11 in 10.0 mi South 3.5 mph - N/A   Overcast
4:35 PM 56.7 °F - 31.3 °F 38% 30.11 in 10.0 mi Calm Calm - N/A   Overcast
4:55 PM 56.5 °F - 31.8 °F 39% 30.11 in 10.0 mi Calm Calm - N/A   Overcast
5:15 PM 56.5 °F - 30.0 °F 36% 30.11 in 10.0 mi Calm Calm - N/A   Overcast
5:35 PM 56.3 °F - 29.1 °F 35% 30.12 in 10.0 mi Calm Calm - N/A   Overcast
5:55 PM 55.6 °F - 27.7 °F 34% 30.12 in 10.0 mi Calm Calm - N/A   Overcast
6:15 PM 55.0 °F - 29.5 °F 38% 30.13 in 10.0 mi Calm Calm - N/A   Overcast
6:35 PM 54.3 °F - 34.3 °F 47% 30.13 in 10.0 mi Calm Calm - N/A   Overcast
6:55 PM 54.0 °F - 35.6 °F 50% 30.13 in 10.0 mi Calm Calm - N/A   Overcast
7:15 PM 53.6 °F - 36.1 °F 52% 30.13 in 10.0 mi Calm Calm - N/A   Overcast
7:35 PM 52.7 °F - 36.9 °F 55% 30.13 in 10.0 mi Calm Calm - N/A   Overcast
7:55 PM 52.9 °F - 36.9 °F 55% 30.13 in 10.0 mi Calm Calm - N/A   Overcast
8:15 PM 52.9 °F - 37.4 °F 56% 30.14 in 10.0 mi Calm Calm - N/A   Overcast
8:35 PM 51.4 °F - 37.2 °F 58% 30.14 in 10.0 mi Calm Calm - N/A   Scattered Clouds
8:55 PM 49.8 °F - 37.4 °F 62% 30.14 in 10.0 mi Calm Calm - N/A   Clear
9:15 PM 47.8 °F - 37.0 °F 66% 30.14 in 10.0 mi Calm Calm - N/A   Clear
9:35 PM 45.7 °F - 36.7 °F 71% 30.14 in 10.0 mi Calm Calm - N/A   Clear
9:55 PM 45.0 °F - 36.5 °F 72% 30.14 in 10.0 mi Calm Calm - N/A   Mostly Cloudy
10:15 PM 44.2 °F - 36.5 °F 74% 30.14 in 10.0 mi Calm Calm - N/A   Overcast
10:35 PM 43.9 °F - 36.1 °F 74% 30.14 in 10.0 mi Calm Calm - N/A   Mostly Cloudy
10:55 PM 44.4 °F - 36.1 °F 73% 30.14 in 10.0 mi Calm Calm - N/A   Overcast
11:15 PM 44.6 °F - 36.1 °F 72% 30.14 in 10.0 mi Calm Calm - N/A   Overcast
11:35 PM 44.4 °F - 36.3 °F 73% 30.14 in 10.0 mi Calm Calm - N/A   Overcast
11:55 PM 44.1 °F - 36.0 °F 73% 30.13 in 10.0 mi Calm Calm - N/A   Scattered Clouds